Location: Squirrel Cove
(50.1074°N, 124.9139°W)
Time: 01:21:03
(UTC-07:00)

Gurwin Techsat 1B - Visible Passes

Search period start: 16 May 2022 00:00
Search period end: 26 May 2022 00:00
Orbit: 812 x 813 km, 98.8° (Epoch: 15 May)

Date Brightness Start Highest point End Pass type
(mag) Time Alt. Az. Time Alt. Az. Time Alt. Az.
16 May 10.7 02:44:00 10° NE 02:47:53 20° E 02:51:44 10° SE visible
16 May 8.7 04:23:00 10° NNE 04:28:19 70° WNW 04:33:36 10° SSW visible
17 May 11.0 02:22:12 10° ENE 02:24:37 13° E 02:27:00 10° ESE visible
17 May 8.7 04:00:03 10° NNE 04:05:24 80° ESE 04:10:43 10° SSW visible
18 May 9.2 03:37:11 10° NNE 03:42:24 53° E 03:47:35 10° S visible
19 May 9.9 03:14:28 10° NNE 03:19:20 35° E 03:24:09 10° SSE visible
20 May 10.5 02:51:58 10° NE 02:56:11 23° E 03:00:21 10° SE visible
20 May 8.8 04:31:15 10° N 04:36:30 61° WNW 04:41:43 10° SSW visible
21 May 10.9 02:29:54 10° NE 02:32:57 15° E 02:35:58 10° ESE visible
21 May 8.7 04:08:14 10° NNE 04:13:36 90° W 04:18:56 10° SSW visible
22 May 9.0 03:45:21 10° NNE 03:50:38 61° ESE 03:55:53 10° S visible
23 May 9.7 03:22:34 10° NNE 03:27:35 40° E 03:32:33 10° SSE visible
24 May 10.3 02:59:59 10° NE 03:04:28 27° E 03:08:53 10° SSE visible
24 May 9.0 04:39:29 10° N 04:44:40 53° WNW 04:49:49 10° SW visible
25 May 10.8 02:37:43 10° NE 02:41:15 18° E 02:44:45 10° SE visible
25 May 8.7 04:16:27 10° NNE 04:21:48 79° WNW 04:27:06 10° SSW visible
